| time (UTC) | temp C | wind direction | speed KPH | gust KPH | rain 1hr cm | rain 24hr cm | rain mn cm | humidity % | barometer mb |
| 20260901030015 | 22 | 213 | 0.0 | 0.0 | 0.00 | 0.10 | 0.03 | 92 | 1018.5 |
| 20260901024506 | 22 | 213 | 0.0 | 0.0 | 0.00 | 0.10 | 0.03 | 92 | 1018.4 |
| 20260901023027 | 21 | 213 | 0.0 | 0.0 | 0.00 | 0.15 | 0.03 | 92 | 1018.5 |
| 20260901021534 | 21 | 213 | 0.0 | 0.0 | 0.00 | 0.18 | 0.03 | 92 | 1018.7 |
| 20260901020046 | 21 | 213 | 0.0 | 0.0 | 0.00 | 0.20 | 0.03 | 91 | 1018.7 |
| 20260901014526 | 21 | 213 | 0.0 | 0.0 | 0.00 | 0.20 | 0.03 | 90 | 1018.6 |
| 20260901013021 | 21 | 213 | 0.0 | 0.0 | 0.00 | 0.20 | 0.03 | 89 | 1018.6 |
| 20260901011514 | 22 | 213 | 0.0 | 0.0 | 0.00 | 0.20 | 0.03 | 88 | 1018.4 |
| 20260901010014 | 22 | 213 | 0.0 | 0.0 | 0.00 | 0.20 | 0.03 | 88 | 1018.3 |
| 20260901004537 | 22 | 213 | 0.0 | 0.0 | 0.00 | 0.20 | 0.03 | 87 | 1018.4 |
| 20260901003033 | 22 | 213 | 0.0 | 0.0 | 0.00 | 0.20 | 0.03 | 87 | 1018.2 |
| 20260901001528 | 22 | 213 | 0.0 | 0.0 | 0.00 | 0.20 | 0.03 | 86 | 1017.9 |
| 20260901000030 | 22 | 213 | 0.0 | 0.0 | 0.00 | 0.20 | 0.03 | 85 | 1017.8 |
| 20260831234526 | 22 | 213 | 0.0 | 0.0 | 0.00 | 0.20 | 0.03 | 84 | 1018.1 |
| 20260831233035 | 23 | 213 | 0.0 | 0.0 | 0.00 | 0.20 | 0.03 | 82 | 1018.2 |
| 20260831231520 | 23 | 213 | 0.0 | 0.0 | 0.00 | 0.20 | 0.03 | 83 | 1018.3 |
| 20260831230015 | 23 | 213 | 0.0 | 0.0 | 0.00 | 0.20 | 0.03 | 84 | 1018.5 |
| 20260831224535 | 23 | 213 | 0.0 | 0.0 | 0.00 | 0.20 | 0.03 | 82 | 1018.4 |
| 20260831223034 | 24 | 213 | 0.0 | 0.0 | 0.00 | 0.20 | 0.03 | 81 | 1018.4 |
| 20260831221532 | 25 | 213 | 0.0 | 0.0 | 0.00 | 0.20 | 0.03 | 78 | 1018.5 |
| 20260831220030 | 24 | 213 | 0.0 | 0.0 | 0.00 | 0.20 | 0.03 | 80 | 1018.8 |
| 20260831214527 | 24 | 213 | 0.0 | 0.0 | 0.00 | 0.20 | 0.03 | 80 | 1018.9 |
| 20260831213034 | 24 | 213 | 0.0 | 0.0 | 0.00 | 0.20 | 0.03 | 81 | 1018.8 |
| 20260831211525 | 24 | 213 | 0.0 | 0.0 | 0.00 | 0.20 | 0.03 | 78 | 1018.8 |
| 20260831210032 | 25 | 317 | 0.0 | 3.2 | 0.00 | 0.20 | 0.03 | 75 | 1019.0 |
| 20260831204533 | 26 | 316 | 0.0 | 3.2 | 0.00 | 0.20 | 0.03 | 72 | 1019.2 |
| 20260831203036 | 25 | 249 | 0.0 | 3.2 | 0.00 | 0.20 | 0.03 | 76 | 1019.2 |
| 20260831201539 | 25 | 233 | 0.0 | 0.0 | 0.00 | 0.20 | 0.03 | 77 | 1019.0 |
| 20260831200039 | 25 | 233 | 0.0 | 3.2 | 0.00 | 0.20 | 0.03 | 77 | 1019.1 |
| 20260831194505 | 25 | 269 | 0.0 | 3.2 | 0.00 | 0.20 | 0.03 | 77 | 1019.4 |
| 20260831193028 | 25 | 236 | 0.0 | 4.8 | 0.00 | 0.20 | 0.03 | 74 | 1019.5 |
| 20260831191530 | 25 | 225 | 0.0 | 3.2 | 0.00 | 0.20 | 0.03 | 76 | 1019.8 |
| 20260831190026 | 25 | 185 | 0.0 | 0.0 | 0.00 | 0.20 | 0.03 | 74 | 1019.9 |
| 20260831184525 | 25 | 185 | 0.0 | 3.2 | 0.00 | 0.20 | 0.03 | 71 | 1020.1 |
| 20260831183019 | 26 | 321 | 0.0 | 3.2 | 0.00 | 0.20 | 0.03 | 73 | 1020.0 |
| 20260831181519 | 25 | 169 | 0.0 | 1.6 | 0.00 | 0.20 | 0.03 | 78 | 1020.0 |
| 20260831180010 | 24 | 155 | 0.0 | 4.8 | 0.00 | 0.20 | 0.03 | 75 | 1020.1 |
| 20260831174530 | 25 | 231 | 0.0 | 3.2 | 0.00 | 0.20 | 0.03 | 73 | 1020.3 |
| 20260831173041 | 25 | 165 | 0.0 | 3.2 | 0.00 | 0.20 | 0.03 | 72 | 1020.3 |
| 20260831171528 | 25 | 165 | 0.0 | 3.2 | 0.00 | 0.20 | 0.03 | 71 | 1020.3 |
| 20260831170028 | 25 | 1 | 0.0 | 3.2 | 0.00 | 0.20 | 0.03 | 69 | 1020.3 |
| 20260831164524 | 25 | 21 | 0.0 | 3.2 | 0.00 | 0.20 | 0.03 | 71 | 1020.3 |
| 20260831163019 | 25 | 349 | 0.0 | 4.8 | 0.00 | 0.20 | 0.03 | 71 | 1020.4 |
| 20260831161518 | 23 | 335 | 0.0 | 3.2 | 0.00 | 0.20 | 0.03 | 73 | 1020.5 |
| 20260831160025 | 24 | 347 | 0.0 | 3.2 | 0.00 | 0.20 | 0.03 | 78 | 1020.4 |
| 20260831154556 | 23 | 347 | 0.0 | 0.0 | 0.00 | 0.20 | 0.03 | 75 | 1020.4 |
| 20260831153030 | 23 | 347 | 0.0 | 3.2 | 0.00 | 0.20 | 0.03 | 79 | 1020.5 |
| 20260831151532 | 23 | 359 | 0.0 | 3.2 | 0.00 | 0.20 | 0.03 | 79 | 1020.3 |
| 20260831150027 | 23 | 359 | 0.0 | 3.2 | 0.00 | 0.20 | 0.03 | 80 | 1020.7 |
| 20260831144540 | 22 | 359 | 0.0 | 1.6 | 0.00 | 0.20 | 0.03 | 81 | 1020.9 |
| 20260831143033 | 22 | 359 | 0.0 | 3.2 | 0.00 | 0.20 | 0.03 | 81 | 1020.8 |
| 20260831141519 | 22 | 359 | 0.0 | 0.0 | 0.00 | 0.20 | 0.03 | 82 | 1020.6 |
| 20260831140033 | 22 | 359 | 0.0 | 0.0 | 0.00 | 0.20 | 0.03 | 83 | 1020.8 |
| 20260831134534 | 22 | 359 | 0.0 | 1.6 | 0.00 | 0.20 | 0.03 | 88 | 1020.6 |
| 20260831133033 | 21 | 359 | 0.0 | 3.2 | 0.00 | 0.20 | 0.03 | 90 | 1020.5 |
| 20260831131531 | 21 | 359 | 0.0 | 1.6 | 0.00 | 0.20 | 0.03 | 93 | 1020.7 |
| 20260831130030 | 21 | 359 | 0.0 | 3.2 | 0.00 | 0.20 | 0.03 | 95 | 1020.7 |
| 20260831124527 | 20 | 359 | 0.0 | 0.0 | 0.00 | 0.20 | 0.03 | 96 | 1020.7 |
| 20260831123033 | 20 | 359 | 0.0 | 0.0 | 0.00 | 0.20 | 0.03 | 96 | 1020.6 |
| 20260831121533 | 20 | 359 | 0.0 | 0.0 | 0.00 | 0.20 | 0.03 | 96 | 1020.5 |
| 20260831120034 | 20 | 359 | 0.0 | 0.0 | 0.00 | 0.20 | 0.03 | 96 | 1020.5 |
| 20260831114535 | 20 | 359 | 0.0 | 0.0 | 0.00 | 0.20 | 0.03 | 96 | 1020.4 |
| 20260831113033 | 20 | 359 | 0.0 | 0.0 | 0.00 | 0.20 | 0.03 | 96 | 1020.1 |
| 20260831111549 | 20 | 359 | 0.0 | 0.0 | 0.00 | 0.20 | 0.03 | 96 | 1020.0 |
| 20260831110031 | 20 | 359 | 0.0 | 0.0 | 0.00 | 0.20 | 0.03 | 96 | 1020.0 |
| 20260831104511 | 20 | 359 | 0.0 | 0.0 | 0.00 | 0.20 | 0.03 | 96 | 1020.0 |
| 20260831103004 | 20 | 359 | 0.0 | 0.0 | 0.00 | 0.20 | 0.03 | 96 | 1019.9 |
| 20260831101503 | 20 | 359 | 0.0 | 0.0 | 0.00 | 0.20 | 0.03 | 96 | 1019.8 |
| 20260831100023 | 20 | 359 | 0.0 | 0.0 | 0.00 | 0.20 | 0.03 | 96 | 1019.5 |
| 20260831094526 | 20 | 359 | 0.0 | 0.0 | 0.00 | 0.20 | 0.03 | 96 | 1019.6 |
| 20260831093019 | 20 | 359 | 0.0 | 0.0 | 0.00 | 0.20 | 0.03 | 96 | 1019.1 |
| 20260831091518 | 20 | 359 | 0.0 | 3.2 | 0.00 | 0.20 | 0.03 | 96 | 1019.0 |
| 20260831090017 | 20 | 226 | 0.0 | 3.2 | 0.00 | 0.20 | 0.03 | 96 | 1018.9 |
| 20260831084508 | 20 | 226 | 0.0 | 0.0 | 0.00 | 0.20 | 0.03 | 96 | 1018.7 |
| 20260831083005 | 20 | 226 | 0.0 | 0.0 | 0.00 | 0.20 | 0.03 | 96 | 1018.8 |
| 20260831081516 | 20 | 226 | 0.0 | 0.0 | 0.00 | 0.20 | 0.03 | 96 | 1018.8 |
| 20260831080028 | 20 | 226 | 0.0 | 0.0 | 0.00 | 0.20 | 0.03 | 96 | 1018.9 |
| 20260831074537 | 20 | 226 | 0.0 | 0.0 | 0.00 | 0.20 | 0.03 | 96 | 1018.9 |
| 20260831073056 | 20 | 226 | 0.0 | 0.0 | 0.00 | 0.20 | 0.03 | 96 | 1019.1 |
| 20260831071517 | 20 | 226 | 0.0 | 0.0 | 0.00 | 0.20 | 0.03 | 96 | 1019.1 |
| 20260831070021 | 20 | 226 | 0.0 | 0.0 | 0.00 | 0.20 | 0.03 | 95 | 1019.1 |
| 20260831064528 | 20 | 226 | 0.0 | 3.2 | 0.00 | 0.20 | 0.03 | 95 | 1019.1 |
| 20260831063017 | 20 | 226 | 0.0 | 0.0 | 0.00 | 0.20 | 0.03 | 95 | 1018.9 |
| 20260831061537 | 20 | 226 | 0.0 | 0.0 | 0.00 | 0.20 | 0.03 | 95 | 1019.2 |
| 20260831060027 | 20 | 226 | 0.0 | 0.0 | 0.00 | 0.20 | 0.03 | 95 | 1019.4 |
| 20260831054529 | 20 | 226 | 0.0 | 0.0 | 0.00 | 0.20 | 0.03 | 95 | 1019.5 |
| 20260831053032 | 20 | 226 | 0.0 | 0.0 | 0.00 | 0.20 | 0.03 | 95 | 1019.5 |
| 20260831051527 | 20 | 226 | 0.0 | 0.0 | 0.03 | 0.20 | 0.03 | 95 | 1019.4 |
| 20260831050036 | 20 | 226 | 0.0 | 0.0 | 0.03 | 0.20 | 0.03 | 95 | 1019.3 |
| 20260831044516 | 20 | 226 | 0.0 | 0.0 | 0.03 | 0.20 | 0.03 | 95 | 1019.6 |
| 20260831043015 | 20 | 226 | 0.0 | 0.0 | 0.03 | 0.20 | 0.03 | 94 | 1019.4 |
| 20260831041543 | 21 | 226 | 0.0 | 0.0 | 0.03 | 0.18 | 0.00 | 94 | 1019.3 |
| 20260831040047 | 21 | 184 | 0.0 | 0.0 | 0.08 | 0.18 | 0.00 | 94 | 1019.5 |
| 20260831034508 | 21 | 184 | 0.0 | 1.6 | 0.08 | 0.18 | 0.18 | 93 | 1019.3 |
| 20260831033012 | 21 | 283 | 0.0 | 3.2 | 0.13 | 0.18 | 0.18 | 93 | 1019.4 |
| 20260831031507 | 22 | 334 | 1.6 | 8.0 | 0.15 | 0.15 | 0.15 | 94 | 1019.5 |